K7D3 Weather Reports


Display with metric or nautical units.
time (UTC)temp
F
wind
direction
speed
MPH
gust
MPH
rain 1hr
in
rain 24hr
in
rain mn
in
humidity
%
barometer
mb
20260507095415 34 79 0.0 0.0 0.00 0.00 0.00 87
20260507094615 35 79 0.0 0.0 0.00 0.00 0.00 86
20260507093813 35 79 0.0 0.0 0.00 0.00 0.00 85
20260507093013 36 79 0.0 0.0 0.00 0.00 0.00 84
20260507092214 36 79 0.0 0.0 0.00 0.00 0.00 83
20260507091411 37 79 0.0 0.0 0.00 0.00 0.00 79
20260507090611 38 79 0.0 0.0 0.00 0.00 0.00 76
20260507085812 38 79 0.0 0.0 0.00 0.00 0.00 74
20260507085008 39 79 0.0 0.0 0.00 0.00 0.00 74
20260507084206 40 79 0.0 0.0 0.00 0.00 0.00 74
20260507083406 40 79 0.0 0.0 0.00 0.00 0.00 75
20260507082604 40 77 2.0 3.0 0.00 0.00 0.00 75
20260507081804 40 8 0.0 0.0 0.00 0.00 0.00 75
20260507081005 40 8 0.0 0.0 0.00 0.00 0.00 77
20260507080202 39 8 0.0 0.0 0.00 0.00 0.00 78
20260507075403 39 8 0.0 0.0 0.00 0.00 0.00 79
20260507074604 39 8 0.0 0.0 0.00 0.00 0.00 82
20260507073801 39 8 0.0 0.0 0.00 0.00 0.00 83
20260507073001 39 8 0.0 0.0 0.00 0.00 0.00 81
20260507072202 39 8 0.0 0.0 0.00 0.00 0.00 80
20260507071359 41 8 0.0 0.0 0.00 0.00 0.00 79
20260507070600 41 8 0.0 0.0 0.00 0.00 0.00 78
20260507065801 41 8 0.0 0.0 0.00 0.00 0.00 78
20260507064958 40 8 0.0 0.0 0.00 0.00 0.00 79
20260507064158 40 8 0.0 0.0 0.00 0.00 0.00 81
20260507063359 40 8 0.0 0.0 0.00 0.00 0.00 80
20260507062556 40 8 0.0 0.0 0.00 0.00 0.00 79
20260507061757 40 8 0.0 0.0 0.00 0.00 0.00 78
20260507060958 41 8 0.0 0.0 0.00 0.00 0.00 78
20260507060155 41 8 0.0 0.0 0.00 0.00 0.00 77
20260507055355 41 8 0.0 0.0 0.00 0.00 0.00 76
20260507054556 42 8 0.0 0.0 0.00 0.00 0.00 74
20260507053754 42 8 0.0 0.0 0.00 0.00 0.00 73
20260507052954 42 8 0.0 0.0 0.00 0.00 0.00 72
20260507052155 42 8 0.0 0.0 0.00 0.00 0.00 72
20260507051353 42 8 0.0 0.0 0.00 0.00 0.00 73
20260507050553 42 8 0.0 0.0 0.00 0.00 0.00 72
20260507045754 42 8 0.0 0.0 0.00 0.00 0.00 72
20260507044951 41 8 0.0 0.0 0.00 0.00 0.00 73
20260507044152 41 8 0.0 0.0 0.00 0.00 0.00 77
20260507043353 41 8 0.0 0.0 0.00 0.00 0.00 76
20260507042550 41 8 0.0 0.0 0.00 0.00 0.00 75
20260507041751 41 8 0.0 0.0 0.00 0.00 0.00 74
20260507040952 41 8 0.0 0.0 0.00 0.00 0.00 73
20260507040150 41 8 0.0 0.0 0.00 0.00 0.00 72
20260507035351 42 8 0.0 0.0 0.00 0.00 0.00 71
20260507034552 42 8 0.0 0.0 0.00 0.00 0.00 72
20260507033749 42 8 0.0 0.0 0.00 0.00 0.00 72
20260507032950 42 8 0.0 0.0 0.00 0.00 0.00 70
20260507032151 42 8 0.0 0.0 0.00 0.00 0.00 69
20260507031348 42 8 0.0 0.0 0.00 0.00 0.00 69
20260507030549 43 8 0.0 0.0 0.00 0.00 0.00 68
20260507025750 43 8 0.0 0.0 0.00 0.00 0.00 69
20260507024948 43 8 0.0 0.0 0.00 0.00 0.00 69
20260507024148 44 8 0.0 0.0 0.00 0.00 0.00 69
20260507023349 44 8 0.0 0.0 0.00 0.00 0.00 67
20260507022547 45 8 0.0 0.0 0.00 0.00 0.00 61
20260507021748 45 8 0.0 0.0 0.00 0.00 0.00 61
20260507020948 45 8 0.0 0.0 0.00 0.00 0.00 60
20260507020146 45 8 0.0 0.0 0.00 0.00 0.00 60
20260507015347 46 8 0.0 0.0 0.00 0.00 0.00 59
20260507014548 46 8 0.0 0.0 0.00 0.00 0.00 58
20260507013745 46 8 0.0 0.0 0.00 0.00 0.00 56
20260507012946 47 8 0.0 0.0 0.00 0.00 0.00 54
20260507012147 46 8 0.0 0.0 0.00 0.00 0.00 53
20260507011345 47 8 0.0 0.0 0.00 0.00 0.00 52
20260507010546 47 8 0.0 0.0 0.00 0.00 0.00 51
20260507005747 47 8 0.0 0.0 0.00 0.00 0.00 50
20260507004942 47 8 0.0 0.0 0.00 0.00 0.00 49
20260507004143 47 8 0.0 0.0 0.00 0.00 0.00 48
20260507003344 48 8 0.0 0.0 0.00 0.00 0.00 47
20260507002542 48 37 0.0 0.0 0.00 0.00 0.00 46
20260507001741 48 353 7.0 6.0 0.00 0.00 0.00 45
20260507000942 48 347 5.0 6.0 0.00 0.00 0.00 44
20260507000140 48 346 7.0 7.0 0.00 0.00 0.00 44
20260506235342 49 346 9.0 9.0 0.00 0.00 0.00 43
20260506234539 50 283 6.0 7.0 0.00 0.00 0.00 42
20260506233737 49 359 9.0 8.0 0.00 0.00 0.00 42
20260506232938 50 333 9.0 10.0 0.00 0.00 0.00 41
20260506232140 50 13 7.0 8.0 0.00 0.00 0.00 41
20260506231338 50 316 7.0 4.0 0.00 0.00 0.00 42
20260506230539 50 335 10.0 11.0 0.00 0.00 0.00 41
20260506225740 51 319 8.0 9.0 0.00 0.00 0.00 40
20260506224938 50 322 9.0 9.0 0.00 0.00 0.00 40
20260506224140 51 6 9.0 8.0 0.00 0.00 0.00 39
20260506223341 51 17 8.0 5.0 0.00 0.00 0.00 40
20260506222539 51 318 8.0 6.0 0.00 0.00 0.00 40
20260506221740 52 349 7.0 9.0 0.00 0.00 0.00 38
20260506220941 52 288 7.0 11.0 0.00 0.00 0.00 37
20260506220139 52 332 10.0 12.0 0.00 0.00 0.00 38
20260506215341 52 330 9.0 13.0 0.00 0.00 0.00 37
20260506214542 51 284 13.0 14.0 0.00 0.00 0.00 37
20260506213738 51 336 11.0 12.0 0.00 0.00 0.00 37
20260506212939 52 301 8.0 14.0 0.00 0.00 0.00 38
20260506212141 51 352 10.0 13.0 0.00 0.00 0.00 38
20260506211339 53 301 10.0 9.0 0.00 0.00 0.00 35
20260506210540 52 315 9.0 8.0 0.00 0.00 0.00 35
20260506205741 52 346 11.0 11.0 0.00 0.00 0.00 36
20260506204939 52 357 14.0 14.0 0.00 0.00 0.00 36
20260506204140 51 326 9.0 10.0 0.00 0.00 0.00 35
20260506203342 52 342 14.0 16.0 0.00 0.00 0.00 35
20260506202540 52 357 9.0 6.0 0.00 0.00 0.00 33
20260506201741 52 17 7.0 7.0 0.00 0.00 0.00 35
20260506200942 51 288 12.0 11.0 0.00 0.00 0.00 33
20260506200140 50 325 10.0 15.0 0.00 0.00 0.00 35
20260506195341 53 336 8.0 9.0 0.00 0.00 0.00 35
20260506194543 52 316 11.0 9.0 0.00 0.00 0.00 35
20260506193741 52 359 10.0 9.0 0.00 0.00 0.00 35
20260506192942 52 325 10.0 12.0 0.00 0.00 0.00 34
20260506192143 51 347 14.0 12.0 0.00 0.00 0.00 35
20260506191341 52 25 7.0 7.0 0.00 0.00 0.00 35
20260506190543 51 326 9.0 10.0 0.00 0.00 0.00 36
20260506185744 51 315 13.0 13.0 0.00 0.00 0.00 35
20260506184942 52 321 10.0 12.0 0.00 0.00 0.00 37
20260506184143 51 301 11.0 7.0 0.00 0.00 0.00 34
20260506183345 51 278 12.0 16.0 0.00 0.00 0.00 35
20260506182543 53 332 7.0 15.0 0.00 0.00 0.00 38
20260506181744 50 343 10.0 7.0 0.00 0.00 0.00 37
20260506180946 50 301 9.0 8.0 0.00 0.00 0.00 38
20260506180144 49 353 13.0 10.0 0.00 0.00 0.00 37
20260506175345 50 315 8.0 6.0 0.00 0.00 0.00 39
20260506174547 49 345 9.0 9.0 0.00 0.00 0.00 40
20260506173744 50 352 7.0 15.0 0.00 0.00 0.00 40
20260506172945 50 339 7.0 7.0 0.00 0.00 0.00 40
20260506172146 50 25 7.0 12.0 0.00 0.00 0.00 39
20260506171344 50 7 9.0 4.0 0.00 0.00 0.00 39
20260506170546 49 31 4.0 7.0 0.00 0.00 0.00 39
20260506165747 50 297 10.0 7.0 0.00 0.00 0.00 39
20260506164946 50 4 9.0 5.0 0.00 0.00 0.00 40
20260506164147 51 246 6.0 0.0 0.00 0.00 0.00 38
20260506163349 51 274 6.0 10.0 0.00 0.00 0.00 38
20260506162547 49 325 8.0 7.0 0.00 0.00 0.00 40
20260506161749 50 45 6.0 8.0 0.00 0.00 0.00 40
20260506160950 49 346 8.0 4.0 0.00 0.00 0.00 40
20260506160148 49 302 5.0 9.0 0.00 0.00 0.00 42
20260506155350 48 314 9.0 7.0 0.00 0.00 0.00 40
20260506154551 49 267 8.0 8.0 0.00 0.00 0.00 41
20260506153749 48 354 0.0 0.0 0.00 0.00 0.00 42
20260506152950 48 329 8.0 4.0 0.00 0.00 0.00 41
20260506152152 49 300 2.0 0.0 0.00 0.00 0.00 42
20260506151350 48 11 7.0 10.0 0.00 0.00 0.00 40
20260506150551 47 238 2.0 5.0 0.00 0.00 0.00 45
20260506145753 47 248 0.0 0.0 0.00 0.00 0.00 46
20260506144951 47 235 0.0 0.0 0.00 0.00 0.00 47
20260506144152 47 235 0.0 0.0 0.00 0.00 0.00 47
20260506143354 46 283 6.0 6.0 0.00 0.00 0.00 46
20260506142552 47 132 0.0 0.0 0.00 0.00 0.00 50
20260506141753 46 148 2.0 6.0 0.00 0.00 0.00 49
20260506140954 46 176 1.0 7.0 0.00 0.00 0.00 52
20260506140152 45 156 0.0 0.0 0.00 0.00 0.00 51
20260506135353 45 135 0.0 0.0 0.00 0.00 0.00 53
20260506134554 45 177 6.0 6.0 0.00 0.00 0.00 56
20260506133752 44 120 1.0 3.0 0.00 0.00 0.00 54
20260506132953 43 149 4.0 5.0 0.00 0.00 0.00 56
20260506132154 42 114 6.0 6.0 0.00 0.00 0.00 57
20260506131352 42 37 3.0 4.0 0.00 0.00 0.00 62
20260506130553 42 121 2.0 4.0 0.00 0.00 0.00 70
20260506125754 41 167 5.0 5.0 0.00 0.00 0.00 72
20260506124951 40 138 5.0 6.0 0.00 0.00 0.00 76
20260506124152 40 339 0.0 0.0 0.00 0.00 0.00 84
20260506123353 39 339 0.0 0.0 0.00 0.00 0.00 88
20260506122550 38 339 0.0 0.0 0.00 0.00 0.00 91
20260506121751 37 339 0.0 0.0 0.00 0.00 0.00 92
20260506120952 36 339 0.0 0.0 0.00 0.00 0.00 93
20260506120149 35 339 0.0 0.0 0.00 0.00 0.00 95
20260506115350 34 339 0.0 0.0 0.00 0.00 0.00 95
20260506114551 33 339 0.0 0.0 0.00 0.00 0.00 95
20260506113748 32 339 0.0 0.0 0.00 0.00 0.00 95
20260506112948 32 339 0.0 0.0 0.00 0.00 0.00 95
20260506112149 31 339 0.0 0.0 0.00 0.00 0.00 95
20260506111345 30 339 0.0 0.0 0.00 0.00 0.00 96
20260506110546 29 339 0.0 0.0 0.00 0.00 0.00 96
20260506105746 29 339 0.0 0.0 0.00 0.00 0.00 96
20260506104943 29 339 0.0 0.0 0.00 0.00 0.00 96
20260506104143 23 339 0.0 0.0 0.00 0.00 0.00 95
20260506103343 23 339 0.0 0.0 0.00 0.00 0.00 95
20260506102539 27 339 0.0 0.0 0.00 0.00 0.00 95
20260506101739 28 339 0.0 0.0 0.00 0.00 0.00 95
20260506100939 25 339 0.0 0.0 0.00 0.00 0.00 95
20260506100136 25 339 0.0 0.0 0.00 0.00 0.00 95